TimeCDT,TemperatureF,Dew PointF,Humidity,Sea Level PressureIn,VisibilityMPH,Wind Direction,Wind SpeedMPH,Gust SpeedMPH,PrecipitationIn,Events,Conditions,WindDirDegrees,DateUTC
12:53 AM,32.0,25.0,75,30.34,10.0,Calm,Calm,-,N/A,,Clear,0,2012-10-07 05:53:00
1:53 AM,28.0,23.0,81,30.34,10.0,Calm,Calm,-,N/A,,Clear,0,2012-10-07 06:53:00
2:53 AM,27.0,23.0,85,30.34,10.0,Calm,Calm,-,N/A,,Clear,0,2012-10-07 07:53:00
3:53 AM,25.0,21.0,85,30.32,10.0,Calm,Calm,-,N/A,,Clear,0,2012-10-07 08:53:00
4:53 AM,23.0,19.9,88,30.32,10.0,Calm,Calm,-,N/A,,Clear,0,2012-10-07 09:53:00
5:53 AM,23.0,19.9,88,30.32,10.0,WSW,3.5,-,N/A,,Clear,250,2012-10-07 10:53:00
6:53 AM,26.1,24.1,92,30.33,10.0,Calm,Calm,-,N/A,,Clear,0,2012-10-07 11:53:00
7:53 AM,23.0,21.0,92,30.34,10.0,Calm,Calm,-,N/A,,Clear,0,2012-10-07 12:53:00
8:53 AM,34.0,28.9,82,30.35,10.0,Calm,Calm,-,N/A,,Clear,0,2012-10-07 13:53:00
9:53 AM,39.0,28.0,65,30.34,10.0,SSW,3.5,-,N/A,,Clear,200,2012-10-07 14:53:00
10:53 AM,46.9,28.0,48,30.33,10.0,Variable,6.9,-,N/A,,Clear,0,2012-10-07 15:53:00
11:53 AM,51.1,24.1,35,30.30,10.0,WNW,4.6,-,N/A,,Clear,300,2012-10-07 16:53:00
12:53 PM,55.0,21.9,28,30.27,10.0,WSW,8.1,-,N/A,,Clear,250,2012-10-07 17:53:00
1:53 PM,55.9,24.1,29,30.23,10.0,West,6.9,17.3,N/A,,Clear,260,2012-10-07 18:53:00
2:53 PM,59.0,25.0,27,30.19,10.0,West,13.8,18.4,N/A,,Partly Cloudy,270,2012-10-07 19:53:00
3:53 PM,57.9,21.9,25,30.17,10.0,WSW,6.9,19.6,N/A,,Partly Cloudy,250,2012-10-07 20:53:00
4:53 PM,57.0,23.0,27,30.15,10.0,WSW,10.4,-,N/A,,Partly Cloudy,240,2012-10-07 21:53:00
5:53 PM,55.9,23.0,28,30.14,10.0,SW,6.9,-,N/A,,Clear,230,2012-10-07 22:53:00
6:53 PM,51.1,23.0,33,30.15,10.0,WSW,6.9,-,N/A,,Clear,240,2012-10-07 23:53:00
7:53 PM,39.9,24.1,53,30.16,10.0,WSW,3.5,-,N/A,,Clear,240,2012-10-08 00:53:00
8:53 PM,39.9,28.0,63,30.17,10.0,SSW,3.5,-,N/A,,Clear,210,2012-10-08 01:53:00
9:53 PM,39.0,27.0,62,30.16,10.0,South,4.6,-,N/A,,Clear,180,2012-10-08 02:53:00
10:53 PM,37.0,27.0,67,30.15,10.0,Calm,Calm,-,N/A,,Clear,0,2012-10-08 03:53:00
11:53 PM,32.0,27.0,82,30.14,10.0,Calm,Calm,-,N/A,,Clear,0,2012-10-08 04:53:00